[[{"header":{"parameterUnit":"m.s-1","parameterCategory":1,"la1":30.2991,"la2":30.254,"lo1":-89.0895,"lo2":-89.0444,"dy":0.0017,"dx":0.0017,"nx":28,"ny":28,"refTime":"2024-08-07T09:00:00:Z","depth":0,"parameterNumber":2,"parameterNumberName":"U-component_of_WINDS"},"data":[0,0,0,0,0,0,0,0,0,0,0,0,0,0,0,0,0,0,0,0,0,0,0,0,0,0,0,0,0,0,0,0,0,0,0,0,0,0,0,0,0,0,0,0,0,0,0,0,0,0,0,0,0,0,0,0,0,0,5.2583,5.2584,0,5.2622,5.2622,5.2623,5.2586,5.2584,5.2583,5.2581,5.2622,5.2624,5.2627,0,0,0,0,0,0,0,0,0,0,0,0,0,5.248,5.2482,5.2583,5.2584,5.2584,5.2622,5.2622,5.2623,5.2586,5.2584,5.2582,5.2581,5.2621,5.2624,5.2627,0,0,0,0,0,0,0,0,0,0,0,0,0,5.2522,5.2482,5.2583,5.257,5.2569,5.2622,5.2622,5.2623,5.2586,5.2584,5.2582,5.258,5.262,5.2624,5.2627,5.2695,0,0,5.2639,5.264,0,0,0,0,0,0,0,0,5.252,5.2526,5.2572,5.2571,5.257,5.2597,5.2601,5.2647,5.2587,5.258,5.2581,5.2579,5.2615,5.2619,5.2632,5.2697,5.2698,5.2639,5.2641,5.2643,5.2644,0,0,0,0,0,0,0,5.2517,5.2524,5.2598,5.2572,5.2572,5.2563,5.2567,5.2609,5.261,5.258,5.2578,5.2583,5.2615,5.2628,5.2632,5.2699,5.2639,5.2642,5.2645,5.2646,5.2824,5.2826,0,0,0,0,0,0,5.2515,5.2522,5.2597,5.26,5.2539,5.2567,5.2571,5.259,5.2609,5.261,5.2585,5.2581,5.2623,5.2628,5.2633,5.2714,5.2643,5.2646,5.2648,5.2821,5.2824,5.2827,0,0,0,0,0,0,5.2513,5.2522,5.2596,5.256,5.2569,5.2571,5.2593,5.2592,5.2606,5.2612,5.2612,5.2598,5.2621,5.2628,5.268,5.2715,5.2648,5.2651,5.2818,5.2822,5.2826,5.2876,0,0,0,0,0,0,5.251,5.2522,5.2546,5.2561,5.2571,5.2641,5.2595,5.2595,5.2612,5.2607,5.2625,5.2626,5.262,5.2675,5.2684,5.2719,5.2654,5.2815,5.282,5.2824,5.2872,5.2881,5.289,0,0,0,0,0,5.2507,5.2559,5.2548,5.2557,5.2602,5.2643,5.2649,5.2641,5.2615,5.264,5.2645,5.2625,5.271,5.2681,5.269,5.2727,5.2813,5.2819,5.2824,5.2867,5.2879,5.289,0,0,0,0,0,0,5.2548,5.256,5.2548,5.2606,5.2624,5.2636,5.2668,5.2653,5.2679,5.2673,5.2663,5.2668,5.2723,5.273,5.2697,5.2795,5.2758,5.2765,5.2787,5.2799,5.2808,5.2804,5.2657,0,0,0,0,0,5.2564,5.2595,5.2605,5.2656,5.2665,5.2665,5.2683,5.2676,5.2694,5.2701,5.2709,5.2728,5.2759,5.2779,5.2808,5.2873,5.2877,5.2904,5.2913,5.292,5.2927,5.2964,5.2976,5.2846,5.2845,5.2845,0,0,5.2596,5.2607,5.2628,5.2664,5.2677,5.2711,5.2672,5.2709,5.2734,5.2706,5.2756,5.2763,5.2784,5.2843,5.2869,5.2851,5.2964,5.2928,5.2934,5.2936,5.2971,5.2983,5.2994,5.2849,5.2849,5.2848,0,0,5.2674,5.2685,5.2729,5.2743,5.2763,5.2763,5.2774,5.279,5.2794,5.2843,5.2824,5.2855,5.2908,5.2924,5.2939,5.3026,5.3009,5.3036,5.3083,5.3119,5.3129,5.3138,5.317,5.3182,5.3043,5.3043,5.3043,0,5.2712,5.2762,5.2753,5.2793,5.281,5.2787,5.2833,5.2847,5.2876,5.2888,5.2868,5.2936,5.2948,5.3011,5.3033,5.3045,5.3058,5.3033,5.3129,5.3138,5.3146,5.3176,5.3188,5.3046,5.3046,5.3045,5.3045,0,5.2808,5.2844,5.2877,5.2906,5.2927,5.2969,5.2968,5.2991,5.2983,5.2986,5.3039,5.3053,5.3085,5.31,5.3092,5.3163,5.3151,5.313,5.3092,5.3162,5.319,5.3201,5.3051,5.3049,5.3048,5.3048,0,0,5.291,5.2936,5.2948,5.2962,5.2984,5.3011,5.3054,5.3085,5.3105,5.3127,5.3163,5.321,5.3191,5.3209,5.3203,5.3235,5.3304,5.321,5.321,5.3227,5.3385,5.34,5.3413,5.3294,5.3296,5.3298,5.3383,0,5.2988,5.306,5.3056,5.3125,5.3158,5.3139,5.3176,5.3194,5.3199,5.3229,5.3235,5.3269,5.3241,5.3251,5.3282,5.3289,5.3335,5.3283,5.3327,5.3329,5.3322,5.3428,5.3444,5.3523,5.3394,5.3396,5.3397,0,5.3088,5.3114,5.3186,5.3205,5.3219,5.3252,5.3282,5.3311,5.3332,5.3334,5.3355,5.3345,5.3389,5.3352,5.3413,5.3378,5.3396,5.3403,5.3406,5.3409,5.3366,5.3434,5.3549,5.3561,5.3414,5.3413,5.3412,0,5.3155,5.3208,5.3259,5.3271,5.3294,5.3319,5.333,5.3349,5.3369,5.3396,5.3409,5.3441,5.3458,5.3484,5.3483,5.3456,5.3546,5.3508,5.3549,5.3549,5.3568,5.3567,5.3687,5.3581,5.3581,5.3581,5.358,0,5.3243,5.3288,5.3289,5.332,5.3371,5.3366,5.3417,5.3426,5.3444,5.3477,5.3463,5.3494,5.3492,5.3525,5.3525,5.3576,5.3584,5.3588,5.3587,5.3589,5.3588,5.36,5.3594,5.3584,5.3583,5.3582,5.3582,0,5.3325,5.3328,5.3382,5.3401,5.3407,5.3443,5.346,5.349,5.3495,5.3537,5.3547,5.3555,5.3593,5.3595,5.3639,5.3639,5.3702,5.3696,5.3695,5.3694,5.3735,5.3731,5.3866,5.3884,5.3767,5.3768,5.3769,0,5.338,5.3415,5.3438,5.3459,5.3472,5.3506,5.3527,5.3525,5.3548,5.3576,5.3604,5.364,5.3669,5.3731,5.3741,5.3775,5.3769,5.3815,5.3774,5.3776,5.377,5.3768,5.3772,5.3822,5.3823,5.3824,5.3825,0,5.3478,5.3479,5.3509,5.3541,5.3567,5.3592,5.3615,5.3634,5.3635,5.3661,5.37,5.3723,5.3768,5.3805,5.3839,5.3852,5.3839,5.3838,5.385,5.3851,5.3849,5.3851,5.3716,5.3835,5.3834,5.3833,5.3833,5.3832,5.3549,5.3579,5.3601,5.3636,5.3654,5.3677,5.3706,5.3716,5.3748,5.3784,5.3782,5.3825,5.3848,5.3892,5.3908,5.3943,5.3927,5.3944,5.3948,5.3952,5.3956,5.3845,5.3949,5.3949,5.3948,5.3948,5.3948,0,5.3646,5.366,5.3692,5.3726,5.3754,5.3741,5.3767,5.3792,5.383,5.3852,5.3882,5.3928,5.3964,5.3978,5.4015,5.404,5.4035,5.4049,5.4047,5.4051,5.3968,5.3954,5.4053,5.4053,5.4053,5.4053,5.4053,5.4053,5.37,5.3751,5.3755,5.3816,5.3829,5.3871,5.3887,5.3909,5.3927,5.3979,5.4009,5.4018,5.4038,5.4076,5.411,5.4113,5.4127,5.4144,5.4145,5.4067,5.4056,5.4046,5.4033,5.4147,5.4147,5.4225,5.4226,5.4226]},{"header":{"parameterUnit":"m.s-1","parameterCategory":1,"la1":30.2991,"la2":30.254,"lo1":-89.0895,"lo2":-89.0444,"dy":0.0017,"dx":0.0017,"nx":28,"ny":28,"refTime":"2024-08-07T09:00:00:Z","depth":0,"parameterNumber":3,"parameterNumberName":"V-component_of_WINDS"},"data":[0,0,0,0,0,0,0,0,0,0,0,0,0,0,0,0,0,0,0,0,0,0,0,0,0,0,0,0,0,0,0,0,0,0,0,0,0,0,0,0,0,0,0,0,0,0,0,0,0,0,0,0,0,0,0,0,0,0,-1.5029,-1.5028,0,-1.4964,-1.4963,-1.4963,-1.501,-1.5013,-1.5015,-1.5017,-1.4943,-1.4939,-1.4935,0,0,0,0,0,0,0,0,0,0,0,0,0,-1.519,-1.5187,-1.5029,-1.5028,-1.5028,-1.4964,-1.4963,-1.4962,-1.501,-1.5013,-1.5015,-1.5018,-1.4944,-1.494,-1.4935,0,0,0,0,0,0,0,0,0,0,0,0,0,-1.5122,-1.5186,-1.5029,-1.5044,-1.5045,-1.4964,-1.4963,-1.4962,-1.5009,-1.5013,-1.5016,-1.5019,-1.4946,-1.494,-1.4934,-1.4834,0,0,-1.4916,-1.4914,0,0,0,0,0,0,0,0,-1.5126,-1.5116,-1.5043,-1.5043,-1.5043,-1.4999,-1.4993,-1.4919,-1.5009,-1.5023,-1.5017,-1.502,-1.4958,-1.4952,-1.4932,-1.4831,-1.4827,-1.4916,-1.4912,-1.491,-1.4908,0,0,0,0,0,0,0,-1.513,-1.5119,-1.5003,-1.5041,-1.5042,-1.5052,-1.5046,-1.4979,-1.4973,-1.5022,-1.5025,-1.5017,-1.4959,-1.4938,-1.4931,-1.4826,-1.4916,-1.4911,-1.4907,-1.4905,-1.4641,-1.4638,0,0,0,0,0,0,-1.5134,-1.5122,-1.5005,-1.5001,-1.5093,-1.5047,-1.504,-1.501,-1.4974,-1.4972,-1.5014,-1.5019,-1.4946,-1.4938,-1.4928,-1.481,-1.491,-1.4904,-1.4901,-1.4644,-1.464,-1.4636,0,0,0,0,0,0,-1.5138,-1.5123,-1.5008,-1.5063,-1.5049,-1.5041,-1.5006,-1.5007,-1.4986,-1.4969,-1.4967,-1.4994,-1.4949,-1.4937,-1.4858,-1.4808,-1.4901,-1.4896,-1.4648,-1.4643,-1.4638,-1.4572,0,0,0,0,0,0,-1.5142,-1.5124,-1.5087,-1.5062,-1.5046,-1.494,-1.5003,-1.5003,-1.4976,-1.4982,-1.4949,-1.4947,-1.495,-1.4867,-1.4852,-1.4802,-1.4891,-1.4653,-1.4646,-1.464,-1.4579,-1.4565,-1.4554,0,0,0,0,0,-1.5148,-1.5069,-1.5085,-1.5071,-1.5,-1.4937,-1.4928,-1.4935,-1.4972,-1.4934,-1.4923,-1.4948,-1.4816,-1.4858,-1.4842,-1.4789,-1.4656,-1.4648,-1.464,-1.4584,-1.4568,-1.4554,0,0,0,0,0,0,-1.5086,-1.5066,-1.5083,-1.4995,-1.4968,-1.4945,-1.4897,-1.4917,-1.4877,-1.4884,-1.4893,-1.4885,-1.4803,-1.4788,-1.4836,-1.4692,-1.4742,-1.473,-1.4704,-1.4689,-1.4677,-1.4682,-1.4886,0,0,0,0,0,-1.5063,-1.5015,-1.5,-1.4923,-1.4909,-1.4905,-1.4878,-1.4887,-1.4858,-1.4846,-1.483,-1.4799,-1.4751,-1.4719,-1.4674,-1.4577,-1.4571,-1.4533,-1.452,-1.451,-1.45,-1.4449,-1.4433,-1.4611,-1.4611,-1.4611,0,0,-1.5013,-1.4996,-1.4965,-1.491,-1.489,-1.484,-1.4895,-1.4839,-1.4801,-1.4837,-1.4763,-1.4749,-1.4716,-1.4628,-1.4589,-1.4613,-1.445,-1.45,-1.4492,-1.4488,-1.444,-1.4423,-1.4408,-1.4606,-1.4607,-1.4607,0,0,-1.4897,-1.4879,-1.4814,-1.4794,-1.4764,-1.4763,-1.4747,-1.4722,-1.4716,-1.4642,-1.4668,-1.4623,-1.4539,-1.4515,-1.4492,-1.4369,-1.439,-1.4354,-1.4289,-1.4239,-1.4225,-1.4213,-1.417,-1.4154,-1.4344,-1.4344,-1.4344,0,-1.4838,-1.4765,-1.4778,-1.4721,-1.4696,-1.4729,-1.4663,-1.4641,-1.4597,-1.4578,-1.4607,-1.4505,-1.4485,-1.4393,-1.4363,-1.4343,-1.4325,-1.4357,-1.4226,-1.4214,-1.4203,-1.4162,-1.4145,-1.434,-1.434,-1.434,-1.4341,0,-1.4695,-1.4644,-1.4595,-1.4555,-1.4524,-1.4463,-1.4465,-1.4432,-1.4444,-1.4439,-1.4364,-1.4341,-1.4293,-1.4271,-1.428,-1.4181,-1.4197,-1.4226,-1.4276,-1.4181,-1.4143,-1.4127,-1.4334,-1.4335,-1.4336,-1.4337,0,0,-1.4537,-1.4507,-1.4489,-1.4472,-1.4442,-1.4402,-1.4342,-1.4297,-1.427,-1.4238,-1.4188,-1.4118,-1.4145,-1.4119,-1.4126,-1.4082,-1.3988,-1.4116,-1.4116,-1.4094,-1.3877,-1.3856,-1.3838,-1.4002,-1.3999,-1.3996,-1.388,0,-1.442,-1.4319,-1.4329,-1.4232,-1.4185,-1.4216,-1.4164,-1.414,-1.4134,-1.4092,-1.4085,-1.4036,-1.4075,-1.406,-1.4018,-1.4008,-1.3944,-1.4016,-1.3954,-1.3952,-1.3962,-1.3818,-1.3795,-1.3687,-1.3865,-1.3863,-1.3861,0,-1.427,-1.4237,-1.4136,-1.4116,-1.4096,-1.4049,-1.4011,-1.3971,-1.3943,-1.3942,-1.3914,-1.3929,-1.3868,-1.392,-1.3836,-1.3885,-1.386,-1.3851,-1.3847,-1.3842,-1.3901,-1.3809,-1.3652,-1.3636,-1.3837,-1.3839,-1.3841,0,-1.4167,-1.4096,-1.4027,-1.4012,-1.3985,-1.3952,-1.3939,-1.3916,-1.3889,-1.3854,-1.3837,-1.3794,-1.377,-1.3736,-1.3739,-1.3777,-1.3654,-1.3706,-1.3651,-1.3651,-1.3623,-1.3625,-1.3461,-1.3606,-1.3606,-1.3607,-1.3607,0,-1.4036,-1.3973,-1.3981,-1.3938,-1.3869,-1.3881,-1.3811,-1.3802,-1.3781,-1.3736,-1.376,-1.3717,-1.3723,-1.368,-1.3682,-1.3612,-1.3601,-1.3598,-1.3599,-1.3596,-1.3597,-1.358,-1.3588,-1.3602,-1.3603,-1.3604,-1.3605,0,-1.3908,-1.3911,-1.3838,-1.3821,-1.3815,-1.3764,-1.3749,-1.3708,-1.3705,-1.3649,-1.3636,-1.363,-1.3581,-1.3581,-1.3523,-1.3525,-1.344,-1.3449,-1.345,-1.3452,-1.3397,-1.3403,-1.3217,-1.3193,-1.3353,-1.3352,-1.3351,0,-1.3825,-1.3778,-1.3756,-1.3729,-1.3715,-1.3671,-1.3645,-1.3655,-1.3626,-1.3593,-1.3556,-1.351,-1.3473,-1.3393,-1.3383,-1.3339,-1.3348,-1.3286,-1.3341,-1.3341,-1.3348,-1.3351,-1.3347,-1.3275,-1.3273,-1.3272,-1.3271,0,-1.3677,-1.3681,-1.3644,-1.3607,-1.3575,-1.3546,-1.3519,-1.3495,-1.3502,-1.3469,-1.342,-1.3392,-1.3336,-1.3289,-1.3248,-1.3233,-1.3252,-1.3253,-1.3239,-1.3235,-1.3238,-1.3237,-1.3421,-1.3257,-1.3259,-1.326,-1.326,-1.3261,-1.3569,-1.3529,-1.3509,-1.3467,-1.3448,-1.3423,-1.3385,-1.3379,-1.3339,-1.3296,-1.3303,-1.3249,-1.3224,-1.3171,-1.3153,-1.311,-1.3131,-1.3109,-1.3103,-1.3098,-1.3093,-1.3245,-1.3102,-1.3102,-1.3102,-1.3103,-1.3103,0,-1.3423,-1.3412,-1.3373,-1.3337,-1.3303,-1.3328,-1.33,-1.327,-1.3222,-1.3198,-1.3163,-1.3108,-1.3063,-1.3051,-1.3007,-1.2975,-1.2983,-1.2964,-1.2966,-1.2963,-1.3075,-1.3093,-1.2958,-1.2958,-1.2958,-1.2958,-1.2958,-1.2958,-1.3344,-1.3278,-1.328,-1.3206,-1.3195,-1.3144,-1.3126,-1.3103,-1.3084,-1.3022,-1.2987,-1.298,-1.296,-1.2916,-1.2876,-1.2874,-1.2857,-1.2834,-1.2835,-1.294,-1.2955,-1.2968,-1.2985,-1.283,-1.283,-1.2726,-1.2725,-1.2724]}]]